Regional Weather Roundup
Issued by NWS Wilmington, NC

Home | Current Version | Previous Version | Text Only | Print | Product List | Glossary On
Versions: 1 2 3 4 5 6 7 8 9 10 11 12 13 14 15 16 17 18 19 20 21 22 23 24 25 26 27 28 29 30 31 32 33 34 35 36 37 38 39 40 41 42 43 44 45 46 47 48 49 50
000
ASUS42 KILM 031813
RWRILM
RWRILM
REGIONAL HOURLY WEATHER ROUNDUP
NATIONAL WEATHER SERVICE WILMINGTON NC
200 PM EDT SUN MAY 03 2015

NOTE: "FAIR" INDICATES FEW OR NO CLOUDS BELOW 12,000 FEET WITH NO
SIGNIFICANT WEATHER AND/OR OBSTRUCTIONS TO VISIBILITY.

...............WFO WILMINGTON COUNTY WARNING AREA...............

......COASTAL NC AND SC COUNTIES......

CITY           SKY/WX    TMP DP  RH WIND       PRES   REMARKS
WILMINGTON     SUNNY     77  38  24 VRB5      30.19F
N MYRTLE BEACH SUNNY     71  60  68 SE13      30.20F
MYRTLE BEACH   MOSUNNY   73  61  64 S14       30.22F

......INLAND NC AND SC COUNTIES.......

CITY           SKY/WX    TMP DP  RH WIND       PRES   REMARKS
LUMBERTON      MOSUNNY   79  45  29 SE6       30.18F
ELIZABETHTOWN  MOSUNNY   77  41  27 S5        30.18F
WHITEVILLE     SUNNY     77  37  24 NE6       30.18F
FLORENCE       MOSUNNY   79  42  26 VRB5      30.18F
DARLINGTON     MOSUNNY   79  39  24 SW3       30.19F

....................REST OF NORTH CAROLINA......................

.........EASTERN NC.........

CITY           SKY/WX    TMP DP  RH WIND       PRES   REMARKS
CAPE HATTERAS  SUNNY     69  53  56 W8        30.19S
JACKSONVILLE   SUNNY     79  41  25 SW6       30.19S
MOREHEAD CITY  SUNNY     74  45  35 SW13      30.19F
KENANSVILLE    SUNNY     77  39  25 SW5       30.19F
NEW BERN       MOSUNNY   79  44  28 NE6       30.19F
ELIZABETH CITY CLOUDY    75  47  36 NW5       30.16S

.........CENTRAL NC.........

CITY           SKY/WX    TMP DP  RH WIND       PRES   REMARKS
RALEIGH DURHAM PTSUNNY   77  48  35 VRB3      30.18F
ROCKY MOUNT    PTSUNNY   77  40  26 CALM      30.17F
ROANOKE RAPIDS NOT AVBL
FAYETTEVILLE   MOSUNNY   78  43  28 MISG      30.18F
HOFFMAN        SUNNY     79  44  28 N7        30.21F

.........WESTERN NC.........

CITY           SKY/WX    TMP DP  RH WIND       PRES   REMARKS
CHARLOTTE      PTSUNNY   79  45  29 W7        30.18F
GREENSBORO     PTSUNNY   73  42  32 S6        30.18F
HICKORY        NOT AVBL
BOONE          NOT AVBL
ASHEVILLE      NOT AVBL

.....................REST OF SOUTH CAROLINA.....................

.........EASTERN SC.........

CITY           SKY/WX    TMP DP  RH WIND       PRES   REMARKS
CHARLESTON     PTSUNNY   79  48  33 NW6       30.18F
BEAUFORT MCAS  MOSUNNY   80  50  34 VRB3      30.19F
HILTON HEAD    MOSUNNY   75  59  57 E7        30.20F

.........CENTRAL SC.........

CITY           SKY/WX    TMP DP  RH WIND       PRES   REMARKS
COLUMBIA       MOSUNNY   80  46  30 VRB3      30.17F
ORANGEBURG     MOSUNNY   79  48  33 VRB5      30.18F
SUMTER SHAW    SUNNY     78  44  29 N5        30.16F

.........WESTERN SC.........

CITY           SKY/WX    TMP DP  RH WIND       PRES   REMARKS
GREENVILLE     NOT AVBL
ROCK HILL      MOSUNNY   77  44  30 W6        30.19F
ANDERSON       SUNNY     77  48  35 SW6       30.18F
CLEMSON        NOT AVBL
GREENWOOD      MOSUNNY   75  48  38 S6        30.19F


...................COASTAL AND OFFSHORE REPORTS..................

................LOCAL PIERS AND NC RESERVE................


STATION/POSITION TIME  SKY/WX   TEMP    WIND        PRES    VSBY
                                AIR SEA DIR/SP/G
                 (UTC)          (F)     (DEG/KT/KT) (MB)    (MI)
JOHNY MRCER PIER 1700            69 69  150/  6/  6 1022.4F
NC RESRV MASNBRO NOT AVBL
OCEAN CREST PIER 1802            71 70  120/  7/  8 1022.0F
SPRINGMAID  PIER 1700            70 67  100/  7/  9 1023.0F


................COASTAL AND OFFSHORE BUOYS................


STATION/POSITION TIME  SKY/WX   TEMP    WIND        PRES    VSBY
                                AIR SEA DIR/SP/G
                 (UTC)          (F)     (DEG/KT/KT) (MB)    (MI)
DIMNDSHOAL 41025 1750            62 62  270/  6/  8 1022.5S
WVE H/P(F/S)=  5/10 WND WVE H/P(F/S)=  2/ 4 SWL H/P/D(F/S/D)=  5/ 70/10

CAPE LOOKOUT     1800            72     230/  8/ 11 1022.1F
ONSLOW BAY 41036 NOT AVBL
5 WRITEBCH 41038 1708            70 68  160/  4/  6 1023.0F
MASONBORO  41110 1719               70                N/A
WVE H/P(F/S)=  2/11 WND WVE H/P(F/S)=  2/ 9 SWL H/P/D(F/S/D)=  2/100/11

WILM HARBR 41108 1711               71                N/A
WVE H/P(F/S)=  2/13 WND WVE H/P(F/S)=  2/ 8 SWL H/P/D(F/S/D)=  2/150/13

27WRITEBCH 41037 1700            67 72  360/  2/  2   N/A
FRYING PAN 41013 1750            71 74   CALM  /  2 1023.8F
WVE H/P(F/S)=  4/10 WND WVE H/P(F/S)=  2/ 4 SWL H/P/D(F/S/D)=  5/110/10

SUNST NRSH 41024 1708            68     160/  8/ 10 1022.9F
CAPRS NRSH 41029 1708            69     180/  4/  6 1022.8F
EDISTO     41004 1750            69 75  280/  2/  4 1022.7F
WVE H/P(F/S)=  3/ 9 SWL H/P/D(F/S/D)=  3/ 9



..........OFFSHORE BUOYS BEYOND 100 NM OFFSHORE...........
.....IN A TRIANGLE---HAT TO BERMUDA TO BAHAMAS TO HAT.....


STATION/POSITION TIME  SKY/WX   TEMP    WIND        PRES    VSBY
                                AIR SEA DIR/SP/G
                 (UTC)          (F)     (DEG/KT/KT) (MB)    (MI)
150E HAT   41001 NOT AVBL
W BERMUDA  41048 1750            68 70  330/ 16/ 19 1019.0R
WVE H/P(F/S)= 11/11 WND WVE H/P(F/S)=  5/ 7 SWL H/P/D(F/S/D)= 10/ 10/11

ATLANTIC S 41049 1750            75 77  330/  6/ 10 1017.7F
WVE H/P(F/S)=  6/ 8 WND WVE H/P(F/S)=  2/ 4 SWL H/P/D(F/S/D)=  5/260/ 8

E BAHAMAS  41046 1750            76 80   40/ 14/ 16 1016.6F
WVE H/P(F/S)=  5/ 8 WND WVE H/P(F/S)=  3/ 5 SWL H/P/D(F/S/D)=  3/320/ 8

NE BAHAMAS 41047 1750            72 76   30/ 10/ 12 1018.9F
WVE H/P(F/S)= 10/11 WND WVE H/P(F/S)=  2/ 4 SWL H/P/D(F/S/D)= 10/340/11

120E CANVRL41010 1720            73 78   60/ 10/ 12 1022.4F

END



USA.gov is the U.S. government's official web portal to all federal, state and local government web resources and services.